Showing default

IONOSFERA-M 01, 61735

Orbit data source: Space-Track

IONOSFERA-M 01, 61735 is a payload satellite owned by VNIIEM (CIS) in SSO that was launched on Mon, 04 Nov 2024 UTC via a SOYUZ-2-1B launch vehicle from the Vostochny Cosmodrome (VOSTO). Payload-class satellites include a variety of spacecraft equipped with specific instruments for various scientific and technological missions. These include communications satellites like Starlink; space stations such as the ISS; scientific satellites like the Hubble; Earth observation satellites from companies like Planet Labs, Umbra, and HawkEye 360; GPS; miniature CubeSats for education and research; and military/defense satellites.

Loading next visibility...
Identifier
61735, 2024-199A
Orbit
SSO
Country
Flag of CISCIS
Related business
Manufacturer
VNIIEM
Mission
Operational Civil Science
Bus & Motor
IONOSFERA-M, Unknown motor
Mass
430 kg wet, 430 kg dry
Launch date (UTC)
2024-11-04 (1 year ago)
Launch vehicle
SOYUZ-2-1B
Launch site
Vostochny Cosmodrome (VOSTO)
Object type
Payload
Rocket body
Debris
Shape & HBR
Box + 1 Ant, 5.0 m
Radar Cross Section
2.359 m², Large (>1 m²)

Expand to show TLE details & history
Last TLE update: 5 hours ago

TLE from 5 hours ago
0 IONOSFERA-M 01
1 61735U 24199A   26037.87872985  .00000104  00000-0  66321-4 0  9996
2 61735  98.7364 272.2840 0001678 120.4064 239.7279 14.22729381109171
Epoch: 2026-02-06T21:05Z
TLE epoch observation values (Epoch: 2026-02-06T21:05:22.259Z)
Latitude
-0.00009°
Longitude
178.93099°
Altitude
819.663 km
Speed
7.443 km/s
True Right ascension
18h 09m 08s
True Declination
0° 00' 00"
Sunlit
Object was in daylight at epoch
Visualization orbit readout
Latitude
Unknown
Longitude
Unknown
Altitude
Unknown
Speed
Unknown
Apparent Right ascension
Unknown
Apparent Declination
Unknown
Sunlit
N/A
Visualization observer readout
Local Sidereal Time
04:38:25
Azimuth
Unknown
Elevation
Unknown
Doppler factor
Unknown
Orbital elements
Apogee altitude
814.5 km
Perigee altitude
812.087 km
Semi-major axis
7,191.43 km
Eccentricity
0.00017
Inclination
98.7364°
RAAN
272.284°
Arg. of periapsis
120.4064°
True anomaly
239.7113°
Mean anomaly
239.7279°
Eccentric anomaly
239.7196°
Mean motion
3.55894 °/min
Orbital period
101.15 mins
BSTAR
0.000066321
Loading maneuver chart data...
Computing Atmospheric mass density...
Loading historical data...
Loading historical data...
Loading historical data...
Loading historical data...
Loading historical data...
Loading historical data...
Loading historical data...

Documentation

Showing up to 5 results
|